Location: Calvatone
(45.1167°N, 10.4333°E)
Time: 16:01:03
(UTC+00:00)

BlueWalker 3 - Pass Details

Date: 08 June 2023
Orbit: 491 x 508 km, 53.2° (Epoch: 28 September)

Event Time Altitude Azimuth Distance (km) Brightness Sun altitude
Rises 22:46:55 0° 300° (WNW) 2,587 6.1 -21.6°
Reaches altitude 10° 22:49:07 10° 296° (WNW) 1,704 5.0 -21.7°
Enters shadow 22:52:00 41° 263° (W) 732 2.7 -21.7°
